Overseas Houston — WWAA — position and weather

sailwx.info

Track history (hours):
 
Tides and Currents Weather Stations Pressure Air Temp Water Temp Dewpoint Dewpoint Depression Visibility Wind Speed Wind Dir Waves Ship Positions

Overseas Houston

Owner: ASC Leasing I, Inc., Philadelphia, PA. More information available from US FCC via Universal Licensing System and Coast Guard Vessel Documentation Center.

Last reported at 2014-Oct-30 05:34 UTC. Time now 2014-Oct-31 09:56 UTC.
Position N 27°36' W 083°13'.

Type: Tanker. MMSI: 367109000.

Date/timePositionNaut miles runAvg speedWind from/ knotsBaromVisibWave heightAir tempDewpointWater temp
2014-Oct-30 05:34N 27°36' W 083°13'1514.9
2014-Oct-30 04:33N 27°36' W 082°56'1313.3
2014-Oct-30 03:33N 27°37' W 082°41'1312.8
2014-Oct-30 02:33N 27°46' W 082°31'6 5.7
2014-Oct-30 01:33N 27°52' W 082°33'0 0.0
2014-Oct-30 00:32N 27°52' W 082°33'0 0.0
2014-Oct-29 23:32N 27°52' W 082°33'0 0.0
2014-Oct-29 22:31N 27°52' W 082°33'0 0.0
2014-Oct-29 21:28N 27°52' W 082°33'0 0.0
2014-Oct-29 20:28N 27°52' W 082°33'0 0.0
2014-Oct-29 19:31N 27°52' W 082°33'0 0.0
2014-Oct-29 18:31N 27°52' W 082°33'0 0.0
2014-Oct-29 17:31N 27°52' W 082°33'0 0.0
2014-Oct-29 16:25N 27°52' W 082°33'0 0.0
2014-Oct-29 15:31N 27°52' W 082°33'0 0.0
2014-Oct-29 14:31N 27°52' W 082°33'0 0.0
2014-Oct-29 13:28N 27°52' W 082°33'0 0.0
2014-Oct-29 12:31N 27°52' W 082°33'0 0.0
2014-Oct-29 11:31N 27°52' W 082°33'0 0.0
2014-Oct-29 10:31N 27°52' W 082°33'0 0.0
2014-Oct-29 09:31N 27°52' W 082°33'0 0.0
2014-Oct-29 08:31N 27°52' W 082°33'0 0.0
2014-Oct-29 07:28N 27°52' W 082°33'0 0.0
2014-Oct-29 06:31N 27°52' W 082°33'0 0.0
2014-Oct-29 05:28N 27°52' W 082°33'0 0.0
2014-Oct-29 04:31N 27°52' W 082°33'0 0.0
2014-Oct-29 03:31N 27°52' W 082°33'0 0.0
2014-Oct-29 02:31N 27°52' W 082°33'0 0.0
2014-Oct-29 01:34N 27°52' W 082°33'1 1.4
2014-Oct-29 00:33N 27°50' W 082°34'6 6.1
2014-Oct-28 23:34N 27°49' W 082°27'6 6.1
2014-Oct-28 22:31N 27°55' W 082°27'0 0.0
2014-Oct-28 21:31N 27°55' W 082°27'0 0.0
2014-Oct-28 20:31N 27°55' W 082°27'0 0.0
2014-Oct-28 19:31N 27°55' W 082°27'0 0.0
2014-Oct-28 18:31N 27°55' W 082°27'0 0.0
2014-Oct-28 17:28N 27°55' W 082°27'0 0.0
2014-Oct-28 16:31N 27°55' W 082°27'0 0.0
2014-Oct-28 15:28N 27°55' W 082°27'0 0.0
2014-Oct-28 14:25N 27°55' W 082°27'0 0.0
2014-Oct-28 13:31N 27°55' W 082°27'0 0.0
2014-Oct-28 12:31N 27°55' W 082°27'0 0.0
2014-Oct-28 11:31N 27°55' W 082°27'0 0.0
2014-Oct-28 10:31N 27°55' W 082°27'0 0.0
2014-Oct-28 09:31N 27°55' W 082°27'0 0.0
2014-Oct-28 08:31N 27°55' W 082°27'0 0.0
2014-Oct-28 07:25N 27°55' W 082°27'0 0.0
2014-Oct-28 06:28N 27°55' W 082°27'3 2.8
2014-Oct-28 05:33N 27°52' W 082°27'1111.0
2014-Oct-28 04:33N 27°43' W 082°33'1211.9
2014-Oct-28 03:34N 27°36' W 082°44'1212.1
2014-Oct-28 02:33N 27°36' W 082°58'39912.1
2014-Oct-26 17:33N 29°57' W 090°04'18 8.9
2014-Oct-26 15:33N 29°59' W 090°24'1 0.0
2014-Oct-25 07:13N 29°60' W 090°25'3 3.9
2014-Oct-25 06:32N 29°57' W 090°24'9 8.8
2014-Oct-25 05:33N 29°57' W 090°14'8 7.2
2014-Oct-25 04:29N 29°55' W 090°05'8 8.0
2014-Oct-25 03:32N 29°55' W 089°56'381 9.3
2014-Oct-23 10:32N 27°36' W 083°12'1515.2
2014-Oct-23 09:33N 27°36' W 082°55'1414.0
2014-Oct-23 08:33N 27°37' W 082°39'1111.2
2014-Oct-23 07:33N 27°47' W 082°33'4 4.4
2014-Oct-23 06:34N 27°52' W 082°33'0 0.0
2014-Oct-23 05:33N 27°52' W 082°33'0 0.0
2014-Oct-23 04:33N 27°52' W 082°33'0 0.0
2014-Oct-23 03:33N 27°52' W 082°33'0 0.0
2014-Oct-23 02:33N 27°52' W 082°33'0 0.0
2014-Oct-23 01:33N 27°52' W 082°33'0 0.0
2014-Oct-23 00:33N 27°52' W 082°33'0 0.0
2014-Oct-22 23:33N 27°52' W 082°33'0 0.0
2014-Oct-22 22:33N 27°52' W 082°33'0 0.0
2014-Oct-22 21:33N 27°52' W 082°33'0 0.0
2014-Oct-22 20:33N 27°52' W 082°33'0 0.0
2014-Oct-22 19:33N 27°52' W 082°33'0 0.0
2014-Oct-22 18:33N 27°52' W 082°33'0 0.0
2014-Oct-22 17:33N 27°52' W 082°33'0 0.0
2014-Oct-22 16:33N 27°52' W 082°33'0 0.0
2014-Oct-22 15:33N 27°52' W 082°33'0 0.0
2014-Oct-22 14:33N 27°52' W 082°33'0 0.0
2014-Oct-22 13:33N 27°52' W 082°33'0 0.0
2014-Oct-22 12:33N 27°52' W 082°33'0 0.0
2014-Oct-22 11:33N 27°52' W 082°33'0 0.0
2014-Oct-22 10:33N 27°52' W 082°33'0 0.0
2014-Oct-22 09:33N 27°52' W 082°33'0 0.0
2014-Oct-22 08:33N 27°52' W 082°33'0 0.0
2014-Oct-22 07:33N 27°52' W 082°33'0 0.0
2014-Oct-22 06:33N 27°52' W 082°33'0 0.0
2014-Oct-22 05:33N 27°52' W 082°33'0 0.0
2014-Oct-22 04:33N 27°52' W 082°33'0 0.0
2014-Oct-22 03:33N 27°52' W 082°33'0 0.0
2014-Oct-22 02:33N 27°52' W 082°33'0 0.0
2014-Oct-22 01:33N 27°52' W 082°33'2 2.5
2014-Oct-22 00:33N 27°49' W 082°34'7 6.5
2014-Oct-21 23:33N 27°49' W 082°27'6 6.2
2014-Oct-21 22:32N 27°55' W 082°26'0 0.0
2014-Oct-21 21:32N 27°55' W 082°26'0 0.0
2014-Oct-21 20:32N 27°55' W 082°26'0 0.0
2014-Oct-21 19:32N 27°55' W 082°26'0 0.0
2014-Oct-21 18:32N 27°55' W 082°26'0 0.0
2014-Oct-21 17:32N 27°55' W 082°26'0 0.0
2014-Oct-21 16:32N 27°55' W 082°26'0 0.0
2014-Oct-21 15:32N 27°55' W 082°26'0 0.0
2014-Oct-21 14:32N 27°55' W 082°26'0 0.0
2014-Oct-21 13:32N 27°55' W 082°26'0 0.0
2014-Oct-21 12:32N 27°55' W 082°26'0 0.0
2014-Oct-21 11:32N 27°55' W 082°26'0 0.0
2014-Oct-21 10:32N 27°55' W 082°26'0 0.0
2014-Oct-21 09:32N 27°55' W 082°26'0 0.0
2014-Oct-21 08:32N 27°55' W 082°26'0 0.0
2014-Oct-21 07:32N 27°55' W 082°26'0 0.0
2014-Oct-21 06:33N 27°55' W 082°26'1 1.5
2014-Oct-21 05:33N 27°54' W 082°26'0 0.3
2014-Oct-21 04:31N 27°54' W 082°26'1 0.8
2014-Oct-21 03:33N 27°55' W 082°27'0 0.0
2014-Oct-21 02:33N 27°55' W 082°27'0 0.0
2014-Oct-21 01:33N 27°55' W 082°27'0 0.0
2014-Oct-21 00:33N 27°55' W 082°27'0 0.0
2014-Oct-20 23:30N 27°55' W 082°27'0 0.0
2014-Oct-20 22:33N 27°55' W 082°27'0 0.0
2014-Oct-20 21:33N 27°55' W 082°27'0 0.0
2014-Oct-20 20:33N 27°55' W 082°27'0 0.0
2014-Oct-20 19:33N 27°55' W 082°27'0 0.0
2014-Oct-20 18:33N 27°55' W 082°27'0 0.0
2014-Oct-20 17:33N 27°55' W 082°27'0 0.0
2014-Oct-20 16:33N 27°55' W 082°27'0 0.0
2014-Oct-20 15:33N 27°55' W 082°27'0 0.0
2014-Oct-20 14:33N 27°55' W 082°27'1 1.3
2014-Oct-20 13:33N 27°54' W 082°26'10 9.7
2014-Oct-20 12:33N 27°45' W 082°32'1111.3
2014-Oct-20 11:33N 27°37' W 082°40'1211.7
2014-Oct-20 10:33N 27°36' W 082°54'9 8.9
2014-Oct-20 09:33N 27°36' W 083°04'  
Track history (hours):
 
Tides and Currents Weather Stations Pressure Air Temp Water Temp Dewpoint Dewpoint Depression Visibility Wind Speed Wind Dir Waves Ship Positions

Overseas Houston

Owner: ASC Leasing I, Inc., Philadelphia, PA. More information available from US FCC via Universal Licensing System and Coast Guard Vessel Documentation Center.

Last reported at 2014-Oct-30 05:34 UTC. Time now 2014-Oct-31 09:56 UTC.
Position N 27°36' W 083°13'.

Type: Tanker. MMSI: 367109000.

Date/timePositionNaut miles runAvg speedWind from/ knotsBaromVisibWave heightAir tempDewpointWater temp
2014-Oct-30 05:34N 27°36' W 083°13'1514.9
2014-Oct-30 04:33N 27°36' W 082°56'1313.3
2014-Oct-30 03:33N 27°37' W 082°41'1312.8
2014-Oct-30 02:33N 27°46' W 082°31'6 5.7
2014-Oct-30 01:33N 27°52' W 082°33'0 0.0
2014-Oct-30 00:32N 27°52' W 082°33'0 0.0
2014-Oct-29 23:32N 27°52' W 082°33'0 0.0
2014-Oct-29 22:31N 27°52' W 082°33'0 0.0
2014-Oct-29 21:28N 27°52' W 082°33'0 0.0
2014-Oct-29 20:28N 27°52' W 082°33'0 0.0
2014-Oct-29 19:31N 27°52' W 082°33'0 0.0
2014-Oct-29 18:31N 27°52' W 082°33'0 0.0
2014-Oct-29 17:31N 27°52' W 082°33'0 0.0
2014-Oct-29 16:25N 27°52' W 082°33'0 0.0
2014-Oct-29 15:31N 27°52' W 082°33'0 0.0
2014-Oct-29 14:31N 27°52' W 082°33'0 0.0
2014-Oct-29 13:28N 27°52' W 082°33'0 0.0
2014-Oct-29 12:31N 27°52' W 082°33'0 0.0
2014-Oct-29 11:31N 27°52' W 082°33'0 0.0
2014-Oct-29 10:31N 27°52' W 082°33'0 0.0
2014-Oct-29 09:31N 27°52' W 082°33'0 0.0
2014-Oct-29 08:31N 27°52' W 082°33'0 0.0
2014-Oct-29 07:28N 27°52' W 082°33'0 0.0
2014-Oct-29 06:31N 27°52' W 082°33'0 0.0
2014-Oct-29 05:28N 27°52' W 082°33'0 0.0
2014-Oct-29 04:31N 27°52' W 082°33'0 0.0
2014-Oct-29 03:31N 27°52' W 082°33'0 0.0
2014-Oct-29 02:31N 27°52' W 082°33'0 0.0
2014-Oct-29 01:34N 27°52' W 082°33'1 1.4
2014-Oct-29 00:33N 27°50' W 082°34'6 6.1
2014-Oct-28 23:34N 27°49' W 082°27'6 6.1
2014-Oct-28 22:31N 27°55' W 082°27'0 0.0
2014-Oct-28 21:31N 27°55' W 082°27'0 0.0
2014-Oct-28 20:31N 27°55' W 082°27'0 0.0
2014-Oct-28 19:31N 27°55' W 082°27'0 0.0
2014-Oct-28 18:31N 27°55' W 082°27'0 0.0
2014-Oct-28 17:28N 27°55' W 082°27'0 0.0
2014-Oct-28 16:31N 27°55' W 082°27'0 0.0
2014-Oct-28 15:28N 27°55' W 082°27'0 0.0
2014-Oct-28 14:25N 27°55' W 082°27'0 0.0
2014-Oct-28 13:31N 27°55' W 082°27'0 0.0
2014-Oct-28 12:31N 27°55' W 082°27'0 0.0
2014-Oct-28 11:31N 27°55' W 082°27'0 0.0
2014-Oct-28 10:31N 27°55' W 082°27'0 0.0
2014-Oct-28 09:31N 27°55' W 082°27'0 0.0
2014-Oct-28 08:31N 27°55' W 082°27'0 0.0
2014-Oct-28 07:25N 27°55' W 082°27'0 0.0
2014-Oct-28 06:28N 27°55' W 082°27'3 2.8
2014-Oct-28 05:33N 27°52' W 082°27'1111.0
2014-Oct-28 04:33N 27°43' W 082°33'1211.9
2014-Oct-28 03:34N 27°36' W 082°44'1212.1
2014-Oct-28 02:33N 27°36' W 082°58'39912.1
2014-Oct-26 17:33N 29°57' W 090°04'18 8.9
2014-Oct-26 15:33N 29°59' W 090°24'1 0.0
2014-Oct-25 07:13N 29°60' W 090°25'3 3.9
2014-Oct-25 06:32N 29°57' W 090°24'9 8.8
2014-Oct-25 05:33N 29°57' W 090°14'8 7.2
2014-Oct-25 04:29N 29°55' W 090°05'8 8.0
2014-Oct-25 03:32N 29°55' W 089°56'381 9.3
2014-Oct-23 10:32N 27°36' W 083°12'1515.2
2014-Oct-23 09:33N 27°36' W 082°55'1414.0
2014-Oct-23 08:33N 27°37' W 082°39'1111.2
2014-Oct-23 07:33N 27°47' W 082°33'4 4.4
2014-Oct-23 06:34N 27°52' W 082°33'0 0.0
2014-Oct-23 05:33N 27°52' W 082°33'0 0.0
2014-Oct-23 04:33N 27°52' W 082°33'0 0.0
2014-Oct-23 03:33N 27°52' W 082°33'0 0.0
2014-Oct-23 02:33N 27°52' W 082°33'0 0.0
2014-Oct-23 01:33N 27°52' W 082°33'0 0.0
2014-Oct-23 00:33N 27°52' W 082°33'0 0.0
2014-Oct-22 23:33N 27°52' W 082°33'0 0.0
2014-Oct-22 22:33N 27°52' W 082°33'0 0.0
2014-Oct-22 21:33N 27°52' W 082°33'0 0.0
2014-Oct-22 20:33N 27°52' W 082°33'0 0.0
2014-Oct-22 19:33N 27°52' W 082°33'0 0.0
2014-Oct-22 18:33N 27°52' W 082°33'0 0.0
2014-Oct-22 17:33N 27°52' W 082°33'0 0.0
2014-Oct-22 16:33N 27°52' W 082°33'0 0.0
2014-Oct-22 15:33N 27°52' W 082°33'0 0.0
2014-Oct-22 14:33N 27°52' W 082°33'0 0.0
2014-Oct-22 13:33N 27°52' W 082°33'0 0.0
2014-Oct-22 12:33N 27°52' W 082°33'0 0.0
2014-Oct-22 11:33N 27°52' W 082°33'0 0.0
2014-Oct-22 10:33N 27°52' W 082°33'0 0.0
2014-Oct-22 09:33N 27°52' W 082°33'0 0.0
2014-Oct-22 08:33N 27°52' W 082°33'0 0.0
2014-Oct-22 07:33N 27°52' W 082°33'0 0.0
2014-Oct-22 06:33N 27°52' W 082°33'0 0.0
2014-Oct-22 05:33N 27°52' W 082°33'0 0.0
2014-Oct-22 04:33N 27°52' W 082°33'0 0.0
2014-Oct-22 03:33N 27°52' W 082°33'0 0.0
2014-Oct-22 02:33N 27°52' W 082°33'0 0.0
2014-Oct-22 01:33N 27°52' W 082°33'2 2.5
2014-Oct-22 00:33N 27°49' W 082°34'7 6.5
2014-Oct-21 23:33N 27°49' W 082°27'6 6.2
2014-Oct-21 22:32N 27°55' W 082°26'0 0.0
2014-Oct-21 21:32N 27°55' W 082°26'0 0.0
2014-Oct-21 20:32N 27°55' W 082°26'0 0.0
2014-Oct-21 19:32N 27°55' W 082°26'0 0.0
2014-Oct-21 18:32N 27°55' W 082°26'0 0.0
2014-Oct-21 17:32N 27°55' W 082°26'0 0.0
2014-Oct-21 16:32N 27°55' W 082°26'0 0.0
2014-Oct-21 15:32N 27°55' W 082°26'0 0.0
2014-Oct-21 14:32N 27°55' W 082°26'0 0.0
2014-Oct-21 13:32N 27°55' W 082°26'0 0.0
2014-Oct-21 12:32N 27°55' W 082°26'0 0.0
2014-Oct-21 11:32N 27°55' W 082°26'0 0.0
2014-Oct-21 10:32N 27°55' W 082°26'0 0.0
2014-Oct-21 09:32N 27°55' W 082°26'0 0.0
2014-Oct-21 08:32N 27°55' W 082°26'0 0.0
2014-Oct-21 07:32N 27°55' W 082°26'0 0.0
2014-Oct-21 06:33N 27°55' W 082°26'1 1.5
2014-Oct-21 05:33N 27°54' W 082°26'0 0.3
2014-Oct-21 04:31N 27°54' W 082°26'1 0.8
2014-Oct-21 03:33N 27°55' W 082°27'0 0.0
2014-Oct-21 02:33N 27°55' W 082°27'0 0.0
2014-Oct-21 01:33N 27°55' W 082°27'0 0.0
2014-Oct-21 00:33N 27°55' W 082°27'0 0.0
2014-Oct-20 23:30N 27°55' W 082°27'0 0.0
2014-Oct-20 22:33N 27°55' W 082°27'0 0.0
2014-Oct-20 21:33N 27°55' W 082°27'0 0.0
2014-Oct-20 20:33N 27°55' W 082°27'0 0.0
2014-Oct-20 19:33N 27°55' W 082°27'0 0.0
2014-Oct-20 18:33N 27°55' W 082°27'0 0.0
2014-Oct-20 17:33N 27°55' W 082°27'0 0.0
2014-Oct-20 16:33N 27°55' W 082°27'0 0.0
2014-Oct-20 15:33N 27°55' W 082°27'0 0.0
2014-Oct-20 14:33N 27°55' W 082°27'1 1.3
2014-Oct-20 13:33N 27°54' W 082°26'10 9.7
2014-Oct-20 12:33N 27°45' W 082°32'1111.3
2014-Oct-20 11:33N 27°37' W 082°40'1211.7
2014-Oct-20 10:33N 27°36' W 082°54'9 8.9
2014-Oct-20 09:33N 27°36' W 083°04'  

Dump ship's entire track history